Regional Weather Roundup
Issued by NWS

Home | Current Version | Previous Version | Graphics & Text | Print | Product List | Glossary On
Versions: 1 2 3 4 5 6 7 8 9 10 11 12 13 14 15 16 17 18 19 20 21 22 23 24 25 26 27 28 29 30 31 32 33 34 35 36 37 38 39 40 41 42 43 44 45 46 47 48 49 50
792
ASUS43 KDMX 271506
RWRIA

WEATHER ROUNDUP FOR IOWA
NATIONAL WEATHER SERVICE DES MOINES IA
1000 AM CDT TUE JUN 27 2017

NOTE: "FAIR" INDICATES FEW OR NO CLOUDS BELOW 12,000 FEET WITH NO
SIGNIFICANT WEATHER AND/OR OBSTRUCTIONS TO VISIBILITY.

* - THESE STATIONS ARE NOT NWS STATIONS...THUS NOT UNDER NWS
QUALITY CONTROL.  THEY ALSO DO NOT REPORT WEATHER SUCH
AS PRECIPITATION OR FOG.

IAZ001>003-012>014-020>022-031>034-043>046-271600-
   NORTHWEST IOWA

CITY           SKY/WX    TMP DP  RH WIND       PRES   REMARKS
CARROLL *      SUNNY     70  46  43 S14G20    30.11F
CHEROKEE *     SUNNY     68  45  44 S10G20    30.08F
DENISON *      SUNNY     68  48  49 S14       30.11F
LE MARS *      SUNNY     68  46  45 S14G25    30.07F
ORANGE CITY *  SUNNY     68  48  49 S14       30.07F
SHELDON *      SUNNY     68  45  42 S14       30.05F
SIOUX CITY     SUNNY     67  51  56 SE15      30.07F
SPENCER        MOSUNNY   68  43  40 S17       30.08F
STORM LAKE *   SUNNY     68  43  40 S15       30.10F
$$

IAZ055>058-069>071-079>083-090>094-271600-
   SOUTHWEST IOWA

CITY           SKY/WX    TMP DP  RH WIND       PRES   REMARKS
ATLANTIC *     SUNNY     68  48  49 SE12      30.11F
AUDUBON *      SUNNY     68  48  49 S9        30.12F
CLARINDA *     SUNNY     68  61  77 S7        30.12F
COUNCIL BLFS * SUNNY     68  61  77 S16       30.09F
CRESTON *      SUNNY     68  50  52 MISG      30.14F
HARLAN  *      SUNNY     68  50  52 SE13      30.13F
LAMONI         SUNNY     68  55  63 SE9       30.13F
RED OAK *      SUNNY     68  59  73 SE9       30.10F
SHENANDOAH *   SUNNY     68  61  77 SE10      30.09F
$$

IAZ047>049-059>061-072>074-084-271600-
   CENTRAL IOWA

CITY           SKY/WX    TMP DP  RH WIND       PRES   REMARKS
AMES           SUNNY     69  49  48 S9        30.13F
ANKENY *       SUNNY     68  46  45 SE12      30.14F
BOONE *        SUNNY     68  46  45 S10G16    30.12F
CHARITON *     SUNNY     68  46  45 SE8G14    30.14F
DES MOINES     MOSUNNY   69  48  47 SE9       30.13F
GRINNELL*      SUNNY     67  46  47 S6        30.16F
KNOXVILLE *    SUNNY     68  45  42 SE8       30.13F
MARSHALLTOWN   SUNNY     68  48  48 S8        30.14F
NEWTON *       SUNNY     68  46  45 S9        30.15F
PELLA *        SUNNY     69  46  43 S6        30.16S
PERRY *          N/A     67  53  59 SE7       30.13F
$$

IAZ004>006-015-016-023>025-035-036-271600-
   NORTH CENTRAL IOWA

CITY           SKY/WX    TMP DP  RH WIND       PRES   REMARKS
ALGONA *       SUNNY     68  45  42 S14       30.10F
CLARION *        N/A     68  46  45 S13       30.12F
ESTHERVILLE    SUNNY     66  46  48 S15G23    30.08F
FORT DODGE *   SUNNY     70  45  40 S10       30.12F
MASON CITY     SUNNY     68  43  40 S10       30.14F
FOREST CITY *    N/A     70  34  26 S10       30.12F
WEBSTER CITY * SUNNY     68  46  45 S13       30.11F
IOWA FALLS *     N/A     68  46  44 S9        30.15F
$$

IAZ007>011-017>019-026>030-037>042-050>054-066-271600-
   NORTHEAST IOWA

CITY           SKY/WX    TMP DP  RH WIND       PRES   REMARKS
CEDAR RAPIDS   SUNNY     67  49  52 SW7       30.15F
CHARLES CITY * SUNNY     68  43  40 S8        30.14F
CLINTON *      SUNNY     68  50  52 MISG      30.16F
DECORAH *      SUNNY     66  46  48 VRB5G12   30.13S
DUBUQUE        SUNNY     68  47  46 W8        30.15F
MONTICELLO *   SUNNY     68  46  45 VRB7      30.15S
WATERLOO       SUNNY     68  44  42 SW10      30.13F
$$

IAZ064-065-067-068-078-271600-
   EAST CENTRAL IOWA

CITY           SKY/WX    TMP DP  RH WIND       PRES   REMARKS
DAVENPORT      SUNNY     67  48  50 VRB5      30.16F
IOWA CITY      MOSUNNY   69  48  47 S6        30.17F
MT. PLEASANT * SUNNY     69  39  32 SW6       30.17F
MUSCATINE *    SUNNY     68  48  49 VRB5      30.16F
QUAD CITIES    SUNNY     69  46  43 SW5       30.16F
$$

IAZ062-063-075>077-085>089-095>099-271600-
   SOUTHEAST IOWA

CITY           SKY/WX    TMP DP  RH WIND       PRES   REMARKS
BURLINGTON     SUNNY     68  44  42 SE5       30.16F
FAIRFIELD *    SUNNY     68  41  37 VRB5      30.16F
FORT MADISON * SUNNY     70  46  43 E5        30.17F
KEOKUK *       SUNNY     70  46  43 SE6       30.16S
OSKALOOSA *      N/A     68  45  42 S5        30.15F
CENTERVILLE *    N/A     68  48  49 CALM      30.16F
OTTUMWA        SUNNY     70  44  39 S7        30.15F
WASHINGTON *   SUNNY     68  46  45 S5        30.18S
$$

ABBREVIATIONS USED IN REMARKS
   TC - TEMPERATURES IN CELSIUS
  WCI - WIND CHILL INDEX
   HX - HEAT INDEX
  VSB - VISIBILITY
$$





USA.gov is the U.S. government's official web portal to all federal, state and local government web resources and services.